Flag for Germany Weather past 2 weeks in Düsseldorf, North Rhine-Westphalia, Germany

Now
63 °F

Sunny.


Feels Like: 63 °F
Forecast: 55 / 67 °F
Wind: 3 mph from Southwest

Location: Duesseldorf

Current Time: Sep 30, 2014 at 8:14:37 PM

Latest Report: Sep 30, 2014 at 7:50 PM


Visibility: 10 mi

Pressure: 30.27 "Hg

Humidity: 77%

Dew point: 55 °F

Location of DüsseldorfLocation

Historic Weather in Düsseldorf — Graph

°F

Düsseldorf temperature yesterday

Maximum temperature yesterday: 72 °F (at 12:50 PM)
Minimum temperature yesterday: 61 °F (at 1:20 AM)
Average temperature yesterday: 64 °F

Past Weeks' High & Low Weather Summary

 TemperatureHumidityPressure
High77 °F (Sep 17, 2:20 PM)100% (Sep 18, 11:20 PM)30.39 "Hg (Sep 18, 11:20 PM)
Low45 °F (Sep 23, 4:20 AM)45% (Sep 23, 5:20 PM)29.83 "Hg (Sep 18, 4:50 AM)
Average61 °F80%30.06 "Hg
* Reported Sep 15 7:20 PM — Sep 30 7:20 PM, Düsseldorf, Weather by CustomWeather, © 2014

Note: Actual official high and low records may vary slightly from our data, if they occured in-between our weather recording intervals... More about our weather records

Advertising

Düsseldorf weather history for previous 24 hours

 ConditionsComfort  
Time TempWeatherWind HumidityBarometerVisibility
7:20 PM
Sep 30
64 °FPassing clouds.5 mph73%30.27 "HgN/A
6:50 PM66 °FPassing clouds.5 mph68%30.27 "HgN/A
6:20 PM66 °FPassing clouds.6 mph68%30.27 "HgN/A
5:50 PM68 °FPassing clouds.6 mph69%30.27 "HgN/A
5:20 PM70 °FPassing clouds.5 mph64%30.27 "HgN/A
4:50 PM68 °FPassing clouds.7 mph64%30.27 "HgN/A
4:20 PM68 °FScattered clouds.6 mph64%30.27 "HgN/A
3:50 PM68 °FPartly sunny.5 mph64%30.27 "HgN/A
3:20 PM68 °FPartly sunny.6 mph69%30.27 "HgN/A
2:50 PM68 °FPartly sunny.7 mph69%30.27 "HgN/A
2:20 PM66 °FBroken clouds.6 mph68%30.27 "HgN/A
1:50 PM66 °FPartly sunny.8 mph73%30.27 "HgN/A
1:20 PM66 °FPartly sunny.9 mph73%30.27 "HgN/A
12:50 PM66 °FPartly sunny.9 mph73%30.27 "HgN/A
12:20 PM66 °FPartly sunny.10 mph68%30.27 "HgN/A
11:50 AM66 °FPartly sunny.10 mph78%30.27 "HgN/A
11:20 AM64 °FPartly sunny.9 mph83%30.27 "HgN/A
10:50 AM66 °FBroken clouds.7 mph83%30.27 "HgN/A
10:20 AM63 °FPartly sunny.8 mph88%30.24 "HgN/A
9:50 AM63 °FBroken clouds.8 mph88%30.24 "HgN/A
9:20 AM63 °FPartly sunny.6 mph88%30.24 "HgN/A
8:50 AM63 °FPartly sunny.7 mph88%30.24 "HgN/A
8:20 AM61 °FPartly cloudy.7 mph94%30.24 "HgN/A
7:50 AM61 °FPassing clouds.6 mph94%30.21 "HgN/A
7:20 AM61 °FPassing clouds.7 mph94%30.21 "HgN/A
6:50 AM61 °FPassing clouds.7 mph94%30.21 "HgN/A
6:20 AM59 °FPassing clouds.8 mph100%30.21 "HgN/A
5:50 AM59 °FPartly cloudy.7 mph94%30.21 "HgN/A
5:20 AM59 °FPassing clouds.7 mph94%30.21 "HgN/A
4:50 AM59 °FPartly cloudy.9 mph94%30.21 "HgN/A
4:20 AM59 °FClear.7 mph94%30.21 "Hg10 mi
3:50 AM59 °FClear.7 mph94%30.21 "Hg10 mi
3:20 AM59 °FClear.7 mph94%30.21 "Hg10 mi
2:50 AM59 °FClear.8 mph94%30.21 "Hg10 mi
2:20 AM59 °FClear.5 mph94%30.21 "Hg10 mi
1:50 AM59 °FClear.7 mph100%30.21 "Hg10 mi
1:20 AM61 °FClear.8 mph94%30.21 "Hg10 mi
12:50 AM59 °FPartly cloudy.8 mph100%30.21 "HgN/A
12:20 AM61 °FPartly cloudy.7 mph94%30.21 "HgN/A
11:50 PM
Sep 29
61 °FPassing clouds.8 mph94%30.21 "HgN/A
11:20 PM61 °FPartly cloudy.7 mph94%30.21 "Hg5 mi
10:50 PM61 °FLight rain. Partly cloudy.5 mph94%30.21 "Hg5 mi
10:20 PM61 °FPartly cloudy.7 mph94%30.21 "Hg5 mi
9:50 PM61 °FLight rain. Mostly cloudy.8 mph94%30.21 "HgN/A
9:20 PM61 °FLight rain. Partly cloudy.7 mph94%30.21 "HgN/A
8:50 PM63 °FLight rain. Mostly cloudy.6 mph88%30.21 "HgN/A
8:20 PM63 °FRain. Mostly cloudy.8 mph88%30.21 "HgN/A
Weather by CustomWeather, © 2014

See weather overviewHow to use our weather pages